This demonstration page uses our WeatherBlox Daily Observations layout. Learn more.

Left ArrowRight Arrow

41.55636, -103.73856

Hourly Observations for December 22, 2017

Temp ( °F °C ) Dew Point ( °F °C ) Humidity (%) Winds ( mph kmh ) Pressure ( in mb ) Visibility ( mi km ) Precip ( " mm )
12:53 am 00:53 Clear -5 -20.6 -8 -22.2 87 87 NNW 6 9 30.24 1024 10 16 N/A
1:53 am 01:53 Clear -7 -21.7 -10 -23.3 87 87 NW 7 11 30.26 1025 10 16 N/A
2:53 am 02:53 Clear -5 -20.6 -8 -22.2 87 87 WNW 8 13 30.25 1025 10 16 N/A
3:53 am 03:53 Partly Cloudy -4 -20 -8 -22.2 83 83 WNW 12 19 30.24 1024 8 13 N/A
4:53 am 04:53 Clear -3 -19.4 -7 -21.7 82 82 NW 10 17 30.24 1024 9 14 N/A
5:53 am 05:53 Clear -1 -18.3 -5 -20.6 82 82 NNW 8 13 30.25 1024 9 14 N/A
6:53 am 06:53 Clear -3 -19.4 -7 -21.7 82 82 NW 12 19 30.30 1026 9 14 N/A
7:53 am 07:53 Sunny 1 -17.2 -4 -20 79 79 NNW 12 19 30.31 1026 8 13 N/A
8:53 am 08:53 Sunny 3 -16.1 -1 -18.3 83 83 NW 12 19 30.33 1027 9 14 N/A
9:53 am 09:53 Sunny 8 -13.3 4 -15.6 83 83 NW 7 11 30.35 1028 9 14 N/A
10:53 am 10:53 Sunny 14 -10 9 -12.8 80 80 NW 10 17 30.31 1026 10 16 N/A
11:53 am 11:53 Sunny 18 -7.8 10 -12.2 71 71 NW 8 13 30.30 1026 10 16 N/A
12:53 pm 12:53 Sunny 22 -5.6 14 -10 71 71 NW 6 9 30.26 1025 10 16 N/A
1:53 pm 13:53 Sunny 26 -3.3 16 -8.9 66 66 N 5 7 30.25 1024 10 16 N/A
2:53 pm 14:53 Sunny 27 -2.8 16 -8.9 63 63 N N/A 30.24 1024 10 16 N/A
3:53 pm 15:53 Sunny 25 -3.9 15 -9.4 66 66 N 3 6 30.26 1025 10 16 N/A
4:53 pm 16:53 Mostly Cloudy 17 -8.3 12 -11.1 80 80 ESE 9 15 30.30 1026 10 16 N/A
5:53 pm 17:53 Cloudy 18 -7.8 13 -10.6 81 81 ESE 3 6 30.31 1026 10 16 N/A
6:53 pm 18:53 Cloudy 17 -8.3 13 -10.6 84 84 ESE 5 7 30.32 1027 10 16 N/A
7:53 pm 19:53 Cloudy 18 -7.8 14 -10 84 84 ESE 5 7 30.30 1026 10 16 N/A
8:53 pm 20:53 Cloudy 17 -8.3 14 -10 88 88 SE 6 9 30.30 1026 10 16 N/A
9:53 pm 21:53 Cloudy 17 -8.3 14 -10 88 88 SE 6 9 30.29 1026 10 16 N/A
10:53 pm 22:53 Cloudy 17 -8.3 14 -10 88 88 ESE 8 13 30.28 1026 10 16 N/A
11:16 pm 23:16 Cloudy with Light Snow 17 -8.3 14 -10 88 88 ESE 8 13 30.39 1029 2 3 N/A
11:24 pm 23:24 Cloudy with Light Snow 17 -8.3 14 -10 88 88 ESE 9 15 30.39 1029 2 3 N/A
11:41 pm 23:41 Cloudy with Light Snow 17 -8.3 15 -9.4 92 92 ESE 7 11 30.36 1028 2 2 0.01 0.25
11:53 pm 23:53 Cloudy with Light Snow 17 -8.3 15 -9.4 92 92 ESE 8 13 30.25 1024 1 2 0.01 0.25

Powered by AerisWeather